TimeCDT,TemperatureF,Dew PointF,Humidity,Sea Level PressureIn,VisibilityMPH,Wind Direction,Wind SpeedMPH,Gust SpeedMPH,PrecipitationIn,Events,Conditions,WindDirDegrees,DateUTC
12:15 AM,68.0,60.6,77,30.10,10.0,Calm,Calm,-,N/A,,Overcast,0,2013-08-17 05:15:00
12:35 AM,67.3,60.3,78,30.10,10.0,Calm,Calm,-,N/A,,Scattered Clouds,0,2013-08-17 05:35:00
12:55 AM,67.1,60.6,80,30.10,10.0,Calm,Calm,-,N/A,,Mostly Cloudy,0,2013-08-17 05:55:00
1:15 AM,67.1,61.0,81,30.10,10.0,Calm,Calm,-,N/A,,Overcast,0,2013-08-17 06:15:00
1:35 AM,66.7,60.8,81,30.09,10.0,NNE,3.5,-,N/A,,Scattered Clouds,30,2013-08-17 06:35:00
1:55 AM,66.7,60.1,79,30.08,10.0,North,4.6,-,N/A,,Clear,10,2013-08-17 06:55:00
2:15 AM,66.4,59.7,79,30.09,10.0,Calm,Calm,-,N/A,,Clear,0,2013-08-17 07:15:00
2:35 AM,64.9,60.4,85,30.08,10.0,Calm,Calm,-,N/A,,Clear,0,2013-08-17 07:35:00
2:55 AM,65.1,60.8,86,30.08,10.0,Calm,Calm,-,N/A,,Clear,0,2013-08-17 07:55:00
3:15 AM,64.6,61.9,91,30.08,10.0,Calm,Calm,-,N/A,,Scattered Clouds,0,2013-08-17 08:15:00
3:35 AM,64.9,61.3,88,30.09,10.0,Calm,Calm,-,N/A,,Scattered Clouds,0,2013-08-17 08:35:00
3:55 AM,64.6,61.9,91,30.08,10.0,Calm,Calm,-,N/A,,Scattered Clouds,0,2013-08-17 08:55:00
4:15 AM,64.8,61.2,88,30.08,10.0,Calm,Calm,-,N/A,,Scattered Clouds,0,2013-08-17 09:15:00
4:35 AM,64.9,60.8,86,30.08,10.0,Calm,Calm,-,N/A,,Mostly Cloudy,0,2013-08-17 09:35:00
4:55 AM,64.8,60.8,87,30.08,10.0,Calm,Calm,-,N/A,,Overcast,0,2013-08-17 09:55:00
5:15 AM,64.6,62.2,92,30.08,10.0,NNE,3.5,-,N/A,,Overcast,30,2013-08-17 10:15:00
5:35 AM,64.8,62.1,91,30.08,10.0,Calm,Calm,-,N/A,Thunderstorm,Overcast,0,2013-08-17 10:35:00
5:55 AM,65.3,61.7,88,30.08,10.0,North,3.5,-,N/A,Thunderstorm,Overcast,10,2013-08-17 10:55:00
6:15 AM,65.5,61.0,85,30.10,10.0,North,3.5,-,N/A,Thunderstorm,Thunderstorm,10,2013-08-17 11:15:00
6:35 AM,65.7,61.2,85,30.11,10.0,Calm,Calm,-,N/A,,Overcast,0,2013-08-17 11:35:00
6:55 AM,65.7,61.5,86,30.11,10.0,Calm,Calm,-,N/A,Thunderstorm,Overcast,0,2013-08-17 11:55:00
7:15 AM,65.8,61.9,87,30.11,10.0,Calm,Calm,-,N/A,Thunderstorm,Overcast,0,2013-08-17 12:15:00
7:35 AM,66.0,62.2,88,30.12,10.0,Calm,Calm,-,N/A,,Overcast,0,2013-08-17 12:35:00
7:55 AM,66.6,62.1,85,30.12,10.0,Calm,Calm,-,N/A,Thunderstorm,Overcast,0,2013-08-17 12:55:00
8:15 AM,66.7,62.2,85,30.13,10.0,ENE,3.5,-,N/A,Thunderstorm,Mostly Cloudy,60,2013-08-17 13:15:00
8:35 AM,66.9,62.2,85,30.13,10.0,NE,3.5,-,N/A,,Mostly Cloudy,40,2013-08-17 13:35:00
8:55 AM,67.1,62.1,84,30.13,10.0,NE,4.6,-,N/A,Thunderstorm,Overcast,40,2013-08-17 13:55:00
9:15 AM,66.9,62.1,84,30.14,10.0,NE,3.5,-,N/A,Rain-Thunderstorm,Rain,50,2013-08-17 14:15:00
9:35 AM,66.7,62.2,85,30.15,10.0,NE,8.1,-,N/A,Thunderstorm,Overcast,40,2013-08-17 14:35:00
9:55 AM,66.0,61.9,86,30.15,10.0,Calm,Calm,-,N/A,Rain,Light Rain,0,2013-08-17 14:55:00
10:15 AM,65.8,64.2,94,30.16,7.0,Calm,Calm,-,N/A,Rain,Light Rain,0,2013-08-17 15:15:00
10:35 AM,65.7,65.3,99,30.17,10.0,NNE,6.9,-,N/A,Rain,Light Rain,20,2013-08-17 15:35:00
10:55 AM,66.4,64.8,95,30.16,10.0,Calm,Calm,-,N/A,,Overcast,0,2013-08-17 15:55:00
11:15 AM,66.7,64.2,92,30.14,10.0,Calm,Calm,-,N/A,,Overcast,0,2013-08-17 16:15:00
11:35 AM,67.5,64.4,90,30.13,10.0,Calm,Calm,-,N/A,,Overcast,0,2013-08-17 16:35:00
11:55 AM,69.8,64.0,82,30.12,10.0,East,6.9,-,N/A,,Overcast,100,2013-08-17 16:55:00
12:15 PM,72.5,65.5,79,30.11,10.0,Calm,Calm,-,N/A,,Overcast,0,2013-08-17 17:15:00
12:35 PM,73.8,66.4,78,30.11,10.0,East,4.6,-,N/A,,Overcast,90,2013-08-17 17:35:00
12:55 PM,75.0,66.0,73,30.11,10.0,NNW,4.6,-,N/A,,Mostly Cloudy,340,2013-08-17 17:55:00
1:15 PM,71.4,66.4,84,30.11,10.0,NW,6.9,-,N/A,,Overcast,310,2013-08-17 18:15:00
1:35 PM,72.9,66.9,82,30.10,10.0,NW,3.5,-,N/A,,Mostly Cloudy,310,2013-08-17 18:35:00
1:55 PM,75.2,66.9,75,30.10,10.0,NNE,3.5,-,N/A,,Scattered Clouds,20,2013-08-17 18:55:00
2:15 PM,75.9,65.3,70,30.10,10.0,NE,4.6,-,N/A,,Scattered Clouds,40,2013-08-17 19:15:00
2:35 PM,77.2,65.1,66,30.09,10.0,ENE,5.8,-,N/A,,Mostly Cloudy,60,2013-08-17 19:35:00
2:55 PM,77.0,64.2,65,30.08,10.0,Calm,Calm,-,N/A,,Mostly Cloudy,0,2013-08-17 19:55:00
3:15 PM,77.0,65.7,68,30.08,10.0,NNE,4.6,-,N/A,Thunderstorm,Overcast,30,2013-08-17 20:15:00
3:35 PM,76.3,65.7,70,30.07,10.0,North,5.8,-,N/A,,Overcast,10,2013-08-17 20:35:00
3:55 PM,79.0,66.0,64,30.07,10.0,Calm,Calm,-,N/A,,Scattered Clouds,0,2013-08-17 20:55:00
4:15 PM,76.5,65.3,68,30.07,10.0,North,6.9,-,N/A,Thunderstorm,Mostly Cloudy,350,2013-08-17 21:15:00
4:35 PM,75.6,65.5,71,30.07,10.0,NNE,4.6,-,N/A,Rain-Thunderstorm,Light Thunderstorms and Rain,30,2013-08-17 21:35:00
4:55 PM,70.3,63.1,78,30.09,10.0,NE,6.9,-,0.01,Rain-Thunderstorm,Thunderstorms and Rain,40,2013-08-17 21:55:00
5:15 PM,67.3,66.6,98,30.09,4.0,Calm,Calm,-,0.15,Rain-Thunderstorm,Heavy Thunderstorms and Rain,0,2013-08-17 22:15:00
5:35 PM,67.5,67.5,100,30.09,10.0,NNW,3.5,-,0.24,Thunderstorm,Thunderstorm,340,2013-08-17 22:35:00
5:55 PM,68.9,68.5,99,30.09,10.0,North,5.8,-,0.24,Rain-Thunderstorm,Light Thunderstorms and Rain,360,2013-08-17 22:55:00
6:15 PM,68.9,68.9,100,30.08,7.0,NNE,5.8,-,N/A,Rain-Thunderstorm,Light Thunderstorms and Rain,30,2013-08-17 23:15:00
6:35 PM,68.9,68.7,99,30.09,10.0,NNE,6.9,-,N/A,Rain,Light Rain,30,2013-08-17 23:35:00
6:55 PM,69.1,68.5,98,30.09,10.0,ENE,3.5,-,N/A,,Overcast,60,2013-08-17 23:55:00
7:15 PM,68.9,68.4,98,30.10,7.0,ENE,3.5,-,N/A,Thunderstorm,Overcast,70,2013-08-18 00:15:00
7:35 PM,68.5,68.4,99,30.11,3.0,Calm,Calm,-,0.03,Rain,Rain,0,2013-08-18 00:35:00
7:55 PM,68.2,68.2,100,30.10,3.0,Calm,Calm,-,0.08,Rain,Rain,0,2013-08-18 00:55:00
8:15 PM,68.2,68.2,100,30.10,2.5,Calm,Calm,-,0.04,Rain,Rain,0,2013-08-18 01:15:00
8:35 PM,68.2,68.2,100,30.09,3.0,NE,4.6,-,0.09,Rain,Rain,40,2013-08-18 01:35:00
8:55 PM,68.0,68.0,100,30.09,3.0,NE,3.5,-,0.15,Rain,Rain,50,2013-08-18 01:55:00
9:15 PM,67.5,67.5,100,30.09,4.0,NE,3.5,-,0.04,Rain,Rain,40,2013-08-18 02:15:00
9:35 PM,67.1,67.1,100,30.09,5.0,NNE,4.6,-,0.06,Rain,Light Rain,20,2013-08-18 02:35:00
9:55 PM,67.1,67.1,100,30.10,5.0,Calm,Calm,-,0.07,Rain,Light Rain,0,2013-08-18 02:55:00
10:15 PM,66.7,66.7,100,30.10,7.0,Calm,Calm,-,N/A,,Mostly Cloudy,0,2013-08-18 03:15:00
10:35 PM,66.7,66.7,100,30.11,5.0,Calm,Calm,-,N/A,,Overcast,0,2013-08-18 03:35:00
10:55 PM,66.7,66.7,100,30.10,7.0,Calm,Calm,-,N/A,,Overcast,0,2013-08-18 03:55:00
11:15 PM,66.7,66.7,100,30.09,7.0,NE,3.5,-,N/A,,Mostly Cloudy,50,2013-08-18 04:15:00
11:35 PM,66.7,66.7,100,30.10,7.0,Calm,Calm,-,N/A,,Mostly Cloudy,0,2013-08-18 04:35:00
11:55 PM,66.2,66.2,100,30.10,7.0,Calm,Calm,-,N/A,,Mostly Cloudy,0,2013-08-18 04:55:00